#timestamp,LO_Frequency,Hit,StdDev 
1505188815.4,286047000.2,N,0.8
1505188835.2,286047000.5,N,0.8
1505188855.1,286046999.8,N,0.8
1505188856.0,286046999.8,N,0.8
1505188875.8,286047000.3,N,0.7
1505188895.7,286047002.6,Y,0.0
1505188915.5,286047002.4,P,1.0
1505188935.3,286047002.7,N,1.0
1505188955.2,286047000.3,N,1.1
1505188975.0,286047000.7,N,1.0
1505188975.9,286047000.7,N,1.0
1505188995.8,286047000.6,N,0.9
1505189015.6,286047000.5,N,0.9
1505189035.4,286047000.9,N,0.8
1505189055.3,286047002.2,N,0.9
1505189075.1,286047002.8,Y,0.0
1505189095.9,286047000.4,P,0.4
1505189115.7,286047000.8,N,0.3
1505189135.5,286046998.6,P,1.0
1505189155.4,286047001.0,N,0.9
1505189175.2,286047000.2,N,0.9
1505189195.1,286046998.7,N,1.0
1505189196.0,286046998.7,N,1.0
1505189215.8,286046998.5,N,1.1
1505189235.6,286047000.6,N,1.0
1505189255.5,286047000.4,N,1.0
1505189275.3,286047002.5,N,1.2
1505189295.2,286047002.3,N,1.3
1505189315.0,286047004.4,Y,0.0
1505189315.9,286047004.4,P,2.1
1505189335.8,286047002.8,N,1.7
1505189355.6,286682707.9,P,275268.5
1505189375.4,286047002.7,N,254282.2
1505189395.3,286047001.8,N,236913.5
1505189415.1,286047002.7,N,222450.6
1505189435.9,286047001.9,N,210239.9
1505189455.7,286047002.4,N,199783.0
1505189475.5,286047002.8,N,190711.7
1505189495.4,286047000.7,N,182752.5
1505189515.2,286046998.1,N,175699.9
1505189535.1,286046999.9,N,169396.2
1505189536.0,286046999.9,N,163719.4
1505189555.8,286047000.8,N,158573.0
1505189575.6,286047000.1,N,153880.1
1505189595.5,286047000.1,N,149578.0
1505189615.3,286047000.4,N,145615.9
1505189635.2,286046999.7,N,141951.3
1505189655.9,286047001.6,N,138549.1
1505189675.7,286047001.6,N,135379.4
1505189695.6,286046999.8,N,132417.0
1505189715.4,286047000.2,N,129640.4
1505189735.3,286047000.8,N,127031.0
1505189755.1,286046998.2,N,124572.6
1505189756.0,286046998.2,N,122251.4
1505189775.8,286047000.5,N,120054.9
1505189795.7,286047000.0,N,117972.5
1505189815.5,286047002.1,N,115994.7
1505189835.3,286046999.7,N,114112.9
1505189855.2,286046999.7,N,114112.9
1505189875.0,286047000.0,N,114113.0
1505189875.9,286047000.0,N,114113.0
1505189895.8,286047002.7,N,1.3
1505189915.6,286047000.1,N,1.3
1505189935.5,286047001.9,N,1.3
1505189955.3,286047001.6,N,1.2
1505189975.1,286047000.2,N,1.2
1505189995.9,286047000.8,N,1.1
1505190015.7,286047000.5,N,1.1
1505190035.6,286047000.3,N,1.1
1505190055.4,286047000.0,N,1.0
1505190075.2,286047000.9,N,1.0
1505190095.1,286047001.2,N,1.0
1505190096.0,286047001.2,N,1.0
1505190115.8,286047000.6,N,1.0
1505190135.7,286047002.8,N,1.1
1505190155.5,286047002.0,N,1.1
1505190175.3,286046999.7,N,1.1
1505190195.2,286047004.0,Y,0.0
1505190215.0,286047004.3,P,1.8
1505190215.9,286047004.3,N,1.7
1505190235.8,286047001.9,N,1.6
1505190255.6,286047003.9,N,1.5
1505190275.4,286047004.4,N,1.5
1505190295.3,286047001.8,N,1.4
1505190315.1,286047004.0,N,1.4
1505190335.9,286047003.9,N,1.3
1505190355.7,286047004.2,Y,0.0
1505190375.5,286047000.2,P,1.5
1505190395.4,286047001.1,N,1.3
1505190415.2,286046998.5,N,1.7
1505190435.1,286046999.4,N,1.6
1505190436.0,286046999.4,N,1.5
1505190455.8,286046999.3,N,1.5
1505190475.6,286046999.6,N,1.4
1505190495.5,286046999.2,N,1.3
1505190515.3,286046996.6,N,1.6
1505190535.2,286046998.7,N,1.6
1505190555.0,286046998.5,N,1.5
1505190555.9,286046998.5,N,1.5
1505190575.7,286047001.1,N,1.5
1505190595.6,286047000.8,N,1.5
1505190615.4,286047000.9,N,1.5
1505190635.3,286047002.7,N,1.6
1505190655.1,286046999.7,N,1.6
1505190675.8,286046999.8,N,1.5
1505190695.7,286047002.8,N,1.6
1505190715.5,286047002.0,N,1.6
1505190735.4,286047001.5,N,1.6
1505190755.2,286047002.2,N,1.6
1505190775.0,286047001.6,N,1.6
1505190775.9,286047001.6,N,1.6
1505190795.8,286047002.4,N,1.6
1505190815.6,286047000.0,N,1.6
1505190835.5,286047000.7,N,1.6
1505190855.3,286047000.9,N,1.5
1505190875.1,286047000.6,N,1.5
1505190895.9,286046998.6,N,1.5
1505190915.7,286046998.3,N,1.5
1505190935.6,286046999.2,N,1.5
1505190955.4,286046996.9,N,1.6
1505190975.2,286046996.9,N,1.7
1505190995.1,286046999.3,N,1.7
1505190996.0,286046999.3,N,1.7
1505191015.8,286046996.5,N,1.8
1505191035.7,286046996.8,N,1.9
1505191055.5,286046995.4,N,2.0
1505191075.3,286046998.0,N,2.0
1505191095.2,286046995.3,N,2.1
1505191115.0,286046994.9,N,2.3
1505191115.9,286046994.9,N,2.4
1505191135.8,286046993.3,N,2.6
1505191155.6,286046995.5,N,2.7
1505191175.5,286046995.2,N,2.7
1505191195.3,286046996.4,N,2.7
1505191215.1,286046996.0,N,2.7
1505191235.9,286046995.9,N,2.6
1505191255.7,286046993.4,N,2.7
1505191275.5,286046993.7,N,2.7
1505191295.4,286046993.3,N,2.7
1505191315.2,286046993.8,N,2.6
1505191335.1,286046994.5,N,2.5
1505191336.0,286046994.5,N,2.3
1505191355.8,286046994.5,N,2.3
1505191375.6,286046992.5,Y,0.0
1505191395.5,286046996.8,P,0.2
1505191415.3,286046994.9,P,0.8
1505191435.2,286046995.0,P,0.8
1505191455.0,286046995.3,Y,0.0
1505191455.9,286046995.3,P,0.2
1505191475.7,286047000.1,N,2.2
1505191495.6,286046999.9,N,2.2
1505191515.4,286047000.6,N,2.3
1505191535.3,286046998.6,N,2.1
1505191555.1,286047000.7,N,2.1
1505191575.8,286047000.8,N,2.1
1505191595.7,286046998.3,N,2.0
1505191615.5,286046998.7,N,1.9
1505191635.4,286046998.4,N,1.8
1505191655.2,286046999.4,N,1.7
1505191675.0,286046999.4,N,1.7
1505191675.9,286046999.4,N,1.6
1505191695.8,286046998.9,N,1.6
1505191715.6,286046998.4,N,1.5
1505191735.5,286046996.9,N,1.5
1505191755.3,286046999.1,N,1.5
1505191775.1,286046999.6,N,1.5
1505191795.9,286046997.4,N,1.5
1505191815.7,286046997.4,N,1.5
1505191835.6,286046996.8,N,1.5
1505191855.4,286046996.5,N,1.5
1505191875.2,286046997.3,N,1.5
1505191895.1,286046997.3,N,1.5
1505191896.0,286046997.3,N,1.5
1505191915.8,286046999.4,N,1.5
1505191935.7,286046996.5,N,1.5
1505191955.5,286046996.6,N,1.5
1505191975.3,286046997.5,N,1.5
1505191995.2,286046998.0,N,1.4
1505192015.0,286046997.6,N,1.3
1505192015.9,286046997.6,N,1.3
1505192035.8,286046995.3,Y,0.0
1505192055.6,286046999.0,P,0.3
1505192075.4,286046999.6,N,0.5
1505192095.3,286046996.6,P,1.1
1505192115.1,286046996.9,N,1.2
1505192135.9,286046997.8,N,1.1
1505192155.7,286046997.6,N,1.0
1505192175.5,286046997.2,N,1.0
1505192195.4,286046997.1,Y,0.0
1505192215.2,286047001.2,P,1.7
1505192235.1,286046998.3,N,1.5
1505192236.0,286046998.3,N,1.3
1505192255.8,286046998.9,N,1.2
1505192275.6,286046998.1,N,1.1
1505192295.5,286046998.5,N,1.0
1505192315.3,286047000.8,N,1.2
1505192335.2,286046998.3,N,1.1
1505192355.9,286046998.7,N,1.1
1505192375.7,286046998.3,N,1.1
1505192395.6,286046998.8,N,1.0
